Location: Aldenham
(51.6667°N, 0.3500°W)
Time: 17:47:02
(UTC+00:00)

Explorer 7 - Pass Details

Date: 21 February 2026
Orbit: 430 x 542 km, 50.2° (Epoch: 8 March)

Event Time Altitude Azimuth Distance (km) Brightness Sun altitude
Rises 16:48:02 0° 269° (W) 2,457 11.6 4.9°
Reaches altitude 10° 16:50:08 10° 267° (W) 1,601 10.8 4.6°
Maximum altitude 16:53:44 71° 183° (S) 501 6.9 4.0°
Drops below altitude 10° 16:57:29 10° 100° (E) 1,667 8.8 3.5°
Sets 16:59:43 0° 98° (E) 2,569 9.7 3.2°
